ZKDAY ZLXY-ZLLL

Flight info

Callsign ZKDAY
Flight time 2h 27m
Altitude 10000
Route TEBIB1B TEBIB W541 OVKAB W94 XFG W213 OVTIB
Aircraft C172/L-SFG/C

Departure

Time 2026-05-06 12:48
Airport Xi'an Xianyang International Airport (ZLXY)

Arrival

Time 2026-05-06 15:16
Airport Lanzhou Zhongchuan International Airport (ZLLL)
Time Latitude Longitude Altitude Speed Heading
2026-05-06 12:42 34.44550 108.77873 1574 ft 0 kts 139°
2026-05-06 12:46 34.44547 108.77876 1574 ft 4 kts 136°
2026-05-06 12:46 34.44513 108.77929 1574 ft 8 kts 100°
2026-05-06 12:46 34.44531 108.78004 1574 ft 11 kts 86°
2026-05-06 12:47 34.44505 108.78053 1574 ft 10 kts 140°
2026-05-06 12:47 34.44450 108.78104 1574 ft 11 kts 143°
2026-05-06 12:47 34.44384 108.78166 1574 ft 13 kts 142°
2026-05-06 12:47 34.44306 108.78137 1573 ft 35 kts 227°
2026-05-06 12:48 34.44006 108.77745 1614 ft 82 kts 231°
2026-05-06 12:48 34.43598 108.77170 1820 ft 94 kts 232°
2026-05-06 12:48 34.43148 108.76527 2036 ft 106 kts 230°
2026-05-06 12:48 34.42649 108.75864 2295 ft 107 kts 229°
2026-05-06 12:49 34.42157 108.75192 2549 ft 106 kts 230°
2026-05-06 12:49 34.41673 108.74520 2772 ft 105 kts 230°
2026-05-06 12:49 34.41196 108.73856 3025 ft 104 kts 231°
2026-05-06 12:49 34.40723 108.73195 3265 ft 103 kts 233°
2026-05-06 12:50 34.40252 108.72539 3518 ft 103 kts 232°
2026-05-06 12:50 34.39777 108.71877 3758 ft 104 kts 232°
2026-05-06 12:50 34.39302 108.71215 3989 ft 104 kts 232°
2026-05-06 12:50 34.38827 108.70552 4249 ft 105 kts 233°
2026-05-06 12:51 34.38347 108.69883 4491 ft 106 kts 232°
2026-05-06 12:51 34.37863 108.69208 4745 ft 107 kts 233°
2026-05-06 12:51 34.37371 108.68520 4977 ft 110 kts 233°
2026-05-06 12:51 34.36861 108.67810 5198 ft 113 kts 233°
2026-05-06 12:52 34.36342 108.67084 5418 ft 115 kts 234°
2026-05-06 12:52 34.35814 108.66348 5637 ft 117 kts 233°
2026-05-06 12:52 34.35281 108.65606 5853 ft 117 kts 234°
2026-05-06 12:52 34.34745 108.64860 6068 ft 118 kts 234°
2026-05-06 12:53 34.34205 108.64108 6287 ft 120 kts 234°
2026-05-06 12:53 34.33654 108.63341 6479 ft 122 kts 234°
2026-05-06 12:53 34.33097 108.62564 6671 ft 122 kts 238°
2026-05-06 12:53 34.32833 108.61654 6867 ft 111 kts 284°
2026-05-06 12:54 34.33124 108.60884 7050 ft 96 kts 327°
2026-05-06 12:54 34.33656 108.60436 7242 ft 93 kts 335°
2026-05-06 12:54 34.34181 108.59973 7432 ft 93 kts 332°
2026-05-06 12:54 34.34696 108.59498 7631 ft 93 kts 332°
2026-05-06 12:55 34.35211 108.59023 7831 ft 93 kts 333°
2026-05-06 12:55 34.35723 108.58550 8024 ft 93 kts 333°
2026-05-06 12:55 34.36238 108.58090 8218 ft 91 kts 335°
2026-05-06 12:55 34.36767 108.57675 8398 ft 91 kts 338°
2026-05-06 12:56 34.37308 108.57267 8570 ft 92 kts 338°
2026-05-06 12:56 34.37852 108.56857 8745 ft 92 kts 338°
2026-05-06 12:56 34.38395 108.56444 8924 ft 92 kts 337°
2026-05-06 12:56 34.38938 108.56029 9101 ft 92 kts 337°
2026-05-06 12:57 34.39480 108.55614 9280 ft 92 kts 337°
2026-05-06 12:57 34.40020 108.55201 9461 ft 92 kts 337°
2026-05-06 12:57 34.40558 108.54788 9638 ft 91 kts 337°
2026-05-06 12:57 34.41093 108.54377 9822 ft 91 kts 337°
2026-05-06 12:58 34.41632 108.53966 9958 ft 95 kts 337°
2026-05-06 12:58 34.42231 108.53519 9986 ft 106 kts 337°
2026-05-06 12:58 34.42882 108.53029 9995 ft 114 kts 336°
2026-05-06 12:58 34.43563 108.52509 9992 ft 118 kts 335°
2026-05-06 12:59 34.44260 108.51972 9991 ft 119 kts 335°
2026-05-06 12:59 34.44963 108.51429 9988 ft 120 kts 335°
2026-05-06 12:59 34.45668 108.50884 9991 ft 120 kts 335°
2026-05-06 12:59 34.46376 108.50339 9990 ft 121 kts 335°
2026-05-06 13:00 34.47085 108.49793 9992 ft 121 kts 335°
2026-05-06 13:00 34.47793 108.49248 9998 ft 121 kts 335°
2026-05-06 13:00 34.48506 108.48700 9994 ft 121 kts 335°
2026-05-06 13:00 34.49215 108.48154 9998 ft 121 kts 335°
2026-05-06 13:01 34.49928 108.47606 9994 ft 121 kts 335°
2026-05-06 13:01 34.50638 108.47060 9993 ft 121 kts 335°
2026-05-06 13:01 34.51348 108.46513 9993 ft 121 kts 335°
2026-05-06 13:01 34.52061 108.45965 9998 ft 122 kts 335°
2026-05-06 13:02 34.52777 108.45414 9994 ft 122 kts 335°
2026-05-06 13:02 34.53489 108.44865 9997 ft 121 kts 335°
2026-05-06 13:02 34.54198 108.44318 9997 ft 121 kts 335°
2026-05-06 13:02 34.54906 108.43773 9999 ft 120 kts 335°
2026-05-06 13:03 34.55613 108.43228 10004 ft 120 kts 335°
2026-05-06 13:03 34.56317 108.42685 10008 ft 120 kts 336°
2026-05-06 13:03 34.57017 108.42146 9999 ft 119 kts 336°
2026-05-06 13:03 34.57710 108.41611 10003 ft 118 kts 336°
2026-05-06 13:04 34.58399 108.41079 10005 ft 117 kts 336°
2026-05-06 13:04 34.59087 108.40550 10008 ft 117 kts 335°
2026-05-06 13:04 34.59776 108.40018 10007 ft 118 kts 335°
2026-05-06 13:04 34.60467 108.39486 10008 ft 117 kts 335°
2026-05-06 13:05 34.61155 108.38954 10008 ft 117 kts 335°
2026-05-06 13:05 34.61612 108.38602 10008 ft 117 kts 335°
2026-05-06 13:05 34.62301 108.38070 10007 ft 117 kts 335°
2026-05-06 13:05 34.62989 108.37539 10009 ft 117 kts 335°
2026-05-06 13:06 34.63678 108.37006 10007 ft 117 kts 335°
2026-05-06 13:06 34.64364 108.36476 10012 ft 117 kts 335°
2026-05-06 13:06 34.65047 108.35948 10013 ft 116 kts 335°
2026-05-06 13:06 34.65732 108.35419 10021 ft 117 kts 335°
2026-05-06 13:07 34.66423 108.34887 10019 ft 118 kts 335°
2026-05-06 13:07 34.67126 108.34343 10019 ft 119 kts 335°
2026-05-06 13:07 34.67813 108.33812 10019 ft 119 kts 335°
2026-05-06 13:07 34.68522 108.33264 10017 ft 119 kts 335°
2026-05-06 13:08 34.69209 108.32732 10016 ft 119 kts 335°
2026-05-06 13:08 34.69907 108.32191 10015 ft 119 kts 335°
2026-05-06 13:08 34.70611 108.31647 10010 ft 118 kts 335°
2026-05-06 13:08 34.71304 108.31110 10010 ft 117 kts 335°
2026-05-06 13:09 34.71989 108.30578 10010 ft 117 kts 335°
2026-05-06 13:09 34.72670 108.30050 10013 ft 116 kts 335°
2026-05-06 13:09 34.73343 108.29525 10006 ft 114 kts 335°
2026-05-06 13:09 34.74009 108.29006 10026 ft 115 kts 335°
2026-05-06 13:10 34.74695 108.28483 10035 ft 118 kts 335°
2026-05-06 13:10 34.75395 108.27946 10036 ft 120 kts 335°
2026-05-06 13:10 34.76101 108.27400 10028 ft 121 kts 335°
2026-05-06 13:10 34.76811 108.26848 10028 ft 122 kts 335°
2026-05-06 13:11 34.77524 108.26289 10023 ft 122 kts 334°
2026-05-06 13:11 34.78234 108.25735 10016 ft 121 kts 335°
2026-05-06 13:11 34.78940 108.25184 10018 ft 120 kts 335°
2026-05-06 13:11 34.79644 108.24634 10018 ft 120 kts 335°
2026-05-06 13:12 34.80345 108.24088 10019 ft 120 kts 335°
2026-05-06 13:12 34.81046 108.23542 10021 ft 120 kts 335°
2026-05-06 13:12 34.81747 108.22998 10022 ft 120 kts 335°
2026-05-06 13:12 34.82450 108.22452 10023 ft 120 kts 335°
2026-05-06 13:13 34.83152 108.21907 10025 ft 120 kts 335°
2026-05-06 13:13 34.83855 108.21362 10028 ft 120 kts 335°
2026-05-06 13:13 34.84558 108.20816 10031 ft 120 kts 335°
2026-05-06 13:13 34.85266 108.20266 10033 ft 121 kts 335°
2026-05-06 13:14 34.85978 108.19713 10029 ft 122 kts 334°
2026-05-06 13:14 34.86692 108.19159 10031 ft 122 kts 334°
2026-05-06 13:14 34.87410 108.18603 10032 ft 123 kts 334°
2026-05-06 13:14 34.88132 108.18042 10028 ft 123 kts 334°
2026-05-06 13:15 34.88855 108.17479 10023 ft 123 kts 334°
2026-05-06 13:15 34.89573 108.16919 10027 ft 123 kts 334°
2026-05-06 13:15 34.90290 108.16360 10025 ft 122 kts 334°
2026-05-06 13:15 34.91009 108.15798 10028 ft 123 kts 334°
2026-05-06 13:16 34.91729 108.15238 10027 ft 123 kts 334°
2026-05-06 13:16 34.92448 108.14685 10033 ft 122 kts 334°
2026-05-06 13:16 34.93168 108.14125 10030 ft 123 kts 334°
2026-05-06 13:16 34.93888 108.13559 10030 ft 123 kts 333°
2026-05-06 13:17 34.94606 108.12997 10025 ft 123 kts 334°
2026-05-06 13:17 34.95325 108.12435 10030 ft 123 kts 334°
2026-05-06 13:17 34.96045 108.11873 10027 ft 123 kts 334°
2026-05-06 13:17 34.96765 108.11311 10030 ft 123 kts 334°
2026-05-06 13:18 34.97486 108.10750 10030 ft 123 kts 334°
2026-05-06 13:18 34.98205 108.10189 10024 ft 122 kts 334°
2026-05-06 13:18 34.98920 108.09631 10025 ft 122 kts 334°
2026-05-06 13:18 34.99634 108.09074 10033 ft 122 kts 334°
2026-05-06 13:19 35.00350 108.08516 10037 ft 122 kts 334°
2026-05-06 13:19 35.01070 108.07954 10034 ft 123 kts 334°
2026-05-06 13:19 35.01791 108.07392 10034 ft 123 kts 334°
2026-05-06 13:19 35.02512 108.06830 10033 ft 123 kts 334°
2026-05-06 13:20 35.03233 108.06267 10032 ft 123 kts 334°
2026-05-06 13:20 35.03958 108.05701 10030 ft 124 kts 334°
2026-05-06 13:20 35.04683 108.05134 10031 ft 124 kts 334°
2026-05-06 13:20 35.05408 108.04566 10029 ft 124 kts 334°
2026-05-06 13:21 35.06131 108.04000 10026 ft 123 kts 334°
2026-05-06 13:21 35.06853 108.03434 10030 ft 124 kts 334°
2026-05-06 13:21 35.07579 108.02867 10028 ft 124 kts 334°
2026-05-06 13:21 35.08301 108.02302 10019 ft 123 kts 334°
2026-05-06 13:22 35.09011 108.01741 10020 ft 121 kts 334°
2026-05-06 13:22 35.09716 108.01188 10020 ft 120 kts 334°
2026-05-06 13:22 35.10417 108.00643 10030 ft 120 kts 334°
2026-05-06 13:22 35.11120 108.00094 10036 ft 120 kts 334°
2026-05-06 13:23 35.11827 107.99539 10040 ft 121 kts 334°
2026-05-06 13:23 35.12542 107.98981 10034 ft 122 kts 334°
2026-05-06 13:23 35.13257 107.98421 10037 ft 122 kts 334°
2026-05-06 13:23 35.13976 107.97858 10036 ft 123 kts 334°
2026-05-06 13:24 35.14695 107.97295 10035 ft 123 kts 333°
2026-05-06 13:24 35.15417 107.96729 10041 ft 124 kts 334°
2026-05-06 13:24 35.16144 107.96159 10037 ft 124 kts 334°
2026-05-06 13:24 35.16871 107.95589 10032 ft 124 kts 334°
2026-05-06 13:25 35.17594 107.95020 10027 ft 123 kts 334°
2026-05-06 13:25 35.18315 107.94454 10032 ft 123 kts 334°
2026-05-06 13:25 35.19034 107.93889 10026 ft 122 kts 334°
2026-05-06 13:25 35.19746 107.93329 10026 ft 122 kts 334°
2026-05-06 13:26 35.20459 107.92769 10030 ft 122 kts 334°
2026-05-06 13:26 35.21170 107.92211 10026 ft 121 kts 334°
2026-05-06 13:26 35.21878 107.91654 10028 ft 121 kts 334°
2026-05-06 13:26 35.22585 107.91098 10028 ft 121 kts 334°
2026-05-06 13:27 35.23292 107.90543 10032 ft 121 kts 334°
2026-05-06 13:27 35.23999 107.89987 10037 ft 121 kts 334°
2026-05-06 13:27 35.24710 107.89429 10038 ft 122 kts 334°
2026-05-06 13:27 35.25413 107.88876 10041 ft 123 kts 334°
2026-05-06 13:28 35.26134 107.88311 10030 ft 123 kts 334°
2026-05-06 13:28 35.26846 107.87750 10015 ft 120 kts 334°
2026-05-06 13:28 35.27544 107.87197 10029 ft 119 kts 334°
2026-05-06 13:28 35.28244 107.86646 10035 ft 120 kts 334°
2026-05-06 13:29 35.28945 107.86095 10032 ft 120 kts 334°
2026-05-06 13:29 35.29649 107.85541 10031 ft 120 kts 334°
2026-05-06 13:29 35.30351 107.84988 10029 ft 120 kts 334°
2026-05-06 13:29 35.31050 107.84437 10027 ft 119 kts 334°
2026-05-06 13:30 35.31748 107.83887 10031 ft 119 kts 334°
2026-05-06 13:30 35.32447 107.83336 10034 ft 120 kts 334°
2026-05-06 13:30 35.33147 107.82784 10035 ft 120 kts 334°
2026-05-06 13:30 35.33850 107.82231 10036 ft 121 kts 334°
2026-05-06 13:31 35.34558 107.81673 10034 ft 121 kts 334°
2026-05-06 13:31 35.35263 107.81118 10034 ft 121 kts 334°
2026-05-06 13:31 35.35972 107.80558 10034 ft 121 kts 334°
2026-05-06 13:31 35.36683 107.79997 10037 ft 122 kts 334°
2026-05-06 13:32 35.37401 107.79432 10038 ft 123 kts 334°
2026-05-06 13:32 35.38122 107.78865 10039 ft 124 kts 334°
2026-05-06 13:32 35.38848 107.78294 10028 ft 123 kts 335°
2026-05-06 13:32 35.39565 107.77726 10025 ft 122 kts 334°
2026-05-06 13:33 35.40278 107.77159 10025 ft 122 kts 334°
2026-05-06 13:33 35.40990 107.76595 10028 ft 122 kts 334°
2026-05-06 13:33 35.41700 107.76033 10024 ft 122 kts 334°
2026-05-06 13:33 35.42416 107.75466 10029 ft 123 kts 334°
2026-05-06 13:34 35.43142 107.74894 10028 ft 125 kts 333°
2026-05-06 13:34 35.43870 107.74317 10020 ft 125 kts 334°
2026-05-06 13:34 35.44602 107.73738 10027 ft 126 kts 334°
2026-05-06 13:34 35.45339 107.73156 10029 ft 126 kts 334°
2026-05-06 13:35 35.46078 107.72571 10034 ft 126 kts 334°
2026-05-06 13:35 35.46816 107.71984 10025 ft 125 kts 334°
2026-05-06 13:35 35.47548 107.71409 10030 ft 125 kts 334°
2026-05-06 13:35 35.48283 107.70827 10041 ft 127 kts 334°
2026-05-06 13:36 35.49028 107.70238 10039 ft 128 kts 334°
2026-05-06 13:36 35.49781 107.69642 10036 ft 129 kts 335°
2026-05-06 13:36 35.50596 107.69264 10030 ft 124 kts 354°
2026-05-06 13:36 35.51445 107.69060 10033 ft 125 kts 353°
2026-05-06 13:37 35.52296 107.68842 10034 ft 125 kts 353°
2026-05-06 13:37 35.53148 107.68619 10028 ft 125 kts 353°
2026-05-06 13:37 35.53994 107.68397 10030 ft 124 kts 353°
2026-05-06 13:37 35.54838 107.68178 10032 ft 124 kts 353°
2026-05-06 13:38 35.55679 107.67961 10028 ft 123 kts 353°
2026-05-06 13:38 35.56482 107.67591 10023 ft 128 kts 329°
2026-05-06 13:38 35.57016 107.66678 10026 ft 135 kts 305°
2026-05-06 13:38 35.57396 107.65620 10030 ft 136 kts 300°
2026-05-06 13:39 35.57735 107.64533 10036 ft 136 kts 298°
2026-05-06 13:39 35.58073 107.63443 10039 ft 137 kts 299°
2026-05-06 13:39 35.58423 107.62358 10037 ft 137 kts 300°
2026-05-06 13:39 35.58786 107.61274 10038 ft 137 kts 301°
2026-05-06 13:40 35.59158 107.60193 10042 ft 138 kts 301°
2026-05-06 13:40 35.59539 107.59111 10036 ft 138 kts 301°
2026-05-06 13:40 35.59923 107.58032 10036 ft 138 kts 302°
2026-05-06 13:40 35.60309 107.56955 10032 ft 138 kts 302°
2026-05-06 13:41 35.60695 107.55878 10035 ft 138 kts 302°
2026-05-06 13:41 35.61082 107.54800 10034 ft 138 kts 302°
2026-05-06 13:41 35.61468 107.53723 10026 ft 137 kts 302°
2026-05-06 13:41 35.61849 107.52658 10037 ft 136 kts 302°
2026-05-06 13:42 35.62236 107.51585 10048 ft 138 kts 302°
2026-05-06 13:42 35.62627 107.50499 10044 ft 140 kts 302°
2026-05-06 13:42 35.63019 107.49410 10027 ft 138 kts 302°
2026-05-06 13:42 35.63404 107.48332 10027 ft 137 kts 301°
2026-05-06 13:43 35.63786 107.47263 10033 ft 137 kts 302°
2026-05-06 13:43 35.64169 107.46197 10036 ft 136 kts 302°
2026-05-06 13:43 35.64550 107.45133 10034 ft 136 kts 302°
2026-05-06 13:43 35.64929 107.44074 10031 ft 135 kts 301°
2026-05-06 13:44 35.65302 107.43028 10020 ft 132 kts 302°
2026-05-06 13:44 35.65544 107.42346 10023 ft 131 kts 302°
2026-05-06 13:44 35.65911 107.41319 10046 ft 132 kts 302°
2026-05-06 13:44 35.66286 107.40280 10060 ft 134 kts 302°
2026-05-06 13:45 35.66666 107.39222 10064 ft 136 kts 301°
2026-05-06 13:45 35.67429 107.37096 10053 ft 136 kts 301°
2026-05-06 13:45 35.67809 107.36032 10045 ft 136 kts 301°
2026-05-06 13:46 35.68188 107.34970 10037 ft 135 kts 301°
2026-05-06 13:46 35.68561 107.33917 10041 ft 134 kts 301°
2026-05-06 13:46 35.68937 107.32870 10044 ft 134 kts 302°
2026-05-06 13:46 35.69313 107.31821 10057 ft 135 kts 301°
2026-05-06 13:47 35.69692 107.30760 10046 ft 135 kts 302°
2026-05-06 13:47 35.70070 107.29700 10045 ft 135 kts 301°
2026-05-06 13:47 35.70445 107.28645 10042 ft 135 kts 302°
2026-05-06 13:47 35.70820 107.27590 10044 ft 134 kts 302°
2026-05-06 13:48 35.71191 107.26544 10034 ft 132 kts 301°
2026-05-06 13:48 35.71559 107.25509 10045 ft 132 kts 301°
2026-05-06 13:48 35.71929 107.24469 10052 ft 133 kts 301°
2026-05-06 13:48 35.72302 107.23423 10043 ft 133 kts 302°
2026-05-06 13:49 35.72672 107.22379 10046 ft 133 kts 301°
2026-05-06 13:49 35.73043 107.21339 10052 ft 134 kts 301°
2026-05-06 13:49 35.73418 107.20290 10055 ft 134 kts 301°
2026-05-06 13:49 35.73793 107.19235 10052 ft 135 kts 301°
2026-05-06 13:50 35.74166 107.18185 10052 ft 133 kts 301°
2026-05-06 13:50 35.74537 107.17140 10055 ft 133 kts 301°
2026-05-06 13:50 35.74902 107.16105 10058 ft 132 kts 302°
2026-05-06 13:50 35.75267 107.15073 10054 ft 131 kts 302°
2026-05-06 13:51 35.75632 107.14043 10060 ft 132 kts 302°
2026-05-06 13:51 35.76001 107.13005 10061 ft 133 kts 302°
2026-05-06 13:51 35.76373 107.11959 10056 ft 133 kts 302°
2026-05-06 13:51 35.76744 107.10916 10043 ft 133 kts 302°
2026-05-06 13:52 35.77110 107.09884 10055 ft 132 kts 302°
2026-05-06 13:52 35.77475 107.08852 10061 ft 132 kts 301°
2026-05-06 13:52 35.77841 107.07818 10060 ft 132 kts 302°
2026-05-06 13:52 35.78206 107.06788 10057 ft 131 kts 302°
2026-05-06 13:53 35.78572 107.05754 10059 ft 131 kts 301°
2026-05-06 13:53 35.78936 107.04725 10055 ft 131 kts 301°
2026-05-06 13:53 35.79304 107.03693 10061 ft 132 kts 300°
2026-05-06 13:53 35.79673 107.02648 10062 ft 133 kts 300°
2026-05-06 13:54 35.80047 107.01586 10068 ft 133 kts 300°
2026-05-06 13:54 35.80411 107.00552 10071 ft 134 kts 300°
2026-05-06 13:54 35.80784 106.99499 10073 ft 135 kts 300°
2026-05-06 13:54 35.81160 106.98436 10069 ft 136 kts 300°
2026-05-06 13:55 35.81535 106.97371 10072 ft 136 kts 300°
2026-05-06 13:55 35.81918 106.96286 10075 ft 137 kts 300°
2026-05-06 13:55 35.82296 106.95214 10063 ft 136 kts 299°
2026-05-06 13:55 35.82673 106.94144 10061 ft 136 kts 300°
2026-05-06 13:56 35.83048 106.93075 10071 ft 136 kts 300°
2026-05-06 13:56 35.83423 106.92006 10067 ft 136 kts 300°
2026-05-06 13:56 35.83798 106.90942 10064 ft 135 kts 300°
2026-05-06 13:56 35.84172 106.89880 10077 ft 135 kts 300°
2026-05-06 13:57 35.84545 106.88822 10070 ft 134 kts 300°
2026-05-06 13:57 35.84913 106.87774 10073 ft 133 kts 300°
2026-05-06 13:57 35.85282 106.86725 10087 ft 134 kts 300°
2026-05-06 13:57 35.85656 106.85666 10088 ft 135 kts 300°
2026-05-06 13:58 35.86033 106.84595 10047 ft 137 kts 300°
2026-05-06 13:58 35.86407 106.83534 10012 ft 136 kts 300°
2026-05-06 13:58 35.86788 106.82448 10013 ft 136 kts 300°
2026-05-06 13:58 35.87165 106.81373 10008 ft 137 kts 300°
2026-05-06 13:59 35.87540 106.80299 10005 ft 136 kts 300°
2026-05-06 13:59 35.87917 106.79225 10002 ft 136 kts 300°
2026-05-06 13:59 35.88293 106.78153 10005 ft 136 kts 300°
2026-05-06 13:59 35.88670 106.77078 10005 ft 137 kts 300°
2026-05-06 14:00 35.89047 106.76002 10005 ft 137 kts 300°
2026-05-06 14:00 35.89424 106.74927 10007 ft 137 kts 300°
2026-05-06 14:00 35.89801 106.73849 10000 ft 136 kts 300°
2026-05-06 14:00 35.90176 106.72779 10000 ft 136 kts 300°
2026-05-06 14:01 35.90548 106.71713 10006 ft 135 kts 300°
2026-05-06 14:01 35.90922 106.70643 10005 ft 136 kts 300°
2026-05-06 14:01 35.91297 106.69571 9999 ft 136 kts 299°
2026-05-06 14:01 35.91671 106.68499 9996 ft 136 kts 299°
2026-05-06 14:02 35.92048 106.67428 10000 ft 136 kts 299°
2026-05-06 14:02 35.92423 106.66356 10009 ft 136 kts 298°
2026-05-06 14:02 35.92797 106.65282 9998 ft 136 kts 298°
2026-05-06 14:02 35.93171 106.64209 10003 ft 136 kts 299°
2026-05-06 14:03 35.93545 106.63136 10004 ft 136 kts 298°
2026-05-06 14:03 35.93920 106.62063 10007 ft 136 kts 299°
2026-05-06 14:03 35.94293 106.60991 9999 ft 135 kts 299°
2026-05-06 14:03 35.94662 106.59931 10004 ft 134 kts 299°
2026-05-06 14:04 35.95030 106.58876 10012 ft 134 kts 298°
2026-05-06 14:04 35.95397 106.57818 10007 ft 134 kts 298°
2026-05-06 14:04 35.95761 106.56773 10011 ft 134 kts 299°
2026-05-06 14:04 35.96131 106.55711 10009 ft 135 kts 298°
2026-05-06 14:05 35.96502 106.54648 10012 ft 135 kts 298°
2026-05-06 14:05 35.96873 106.53584 10023 ft 135 kts 298°
2026-05-06 14:05 35.97245 106.52515 10018 ft 136 kts 298°
2026-05-06 14:05 35.97621 106.51434 10017 ft 137 kts 298°
2026-05-06 14:06 35.98002 106.50334 10010 ft 137 kts 298°
2026-05-06 14:06 35.98374 106.49266 10012 ft 137 kts 298°
2026-05-06 14:06 35.98755 106.48167 10018 ft 138 kts 298°
2026-05-06 14:06 35.99125 106.47097 10002 ft 136 kts 298°
2026-05-06 14:07 35.99501 106.46015 10005 ft 135 kts 298°
2026-05-06 14:07 35.99869 106.44952 10015 ft 135 kts 298°
2026-05-06 14:07 36.00238 106.43886 10019 ft 135 kts 298°
2026-05-06 14:07 36.00611 106.42814 10022 ft 136 kts 298°
2026-05-06 14:08 36.00985 106.41736 10019 ft 137 kts 298°
2026-05-06 14:08 36.01360 106.40654 10019 ft 137 kts 298°
2026-05-06 14:08 36.01735 106.39573 10018 ft 137 kts 298°
2026-05-06 14:08 36.02111 106.38487 10025 ft 138 kts 298°
2026-05-06 14:09 36.02490 106.37395 10029 ft 139 kts 298°
2026-05-06 14:09 36.02869 106.36300 10021 ft 139 kts 298°
2026-05-06 14:09 36.03248 106.35204 10021 ft 139 kts 298°
2026-05-06 14:09 36.03623 106.34111 10000 ft 137 kts 300°
2026-05-06 14:10 36.03994 106.33027 10014 ft 137 kts 300°
2026-05-06 14:10 36.04367 106.31949 10024 ft 137 kts 300°
2026-05-06 14:10 36.04743 106.30865 10022 ft 137 kts 300°
2026-05-06 14:10 36.05118 106.29780 10021 ft 137 kts 300°
2026-05-06 14:11 36.05493 106.28696 10023 ft 137 kts 299°
2026-05-06 14:11 36.05867 106.27613 10025 ft 137 kts 299°
2026-05-06 14:11 36.06244 106.26524 10031 ft 138 kts 299°
2026-05-06 14:11 36.06620 106.25432 10024 ft 138 kts 299°
2026-05-06 14:12 36.06996 106.24341 10027 ft 138 kts 299°
2026-05-06 14:12 36.07373 106.23246 10023 ft 138 kts 299°
2026-05-06 14:12 36.07749 106.22156 10023 ft 138 kts 299°
2026-05-06 14:12 36.08082 106.21039 10022 ft 139 kts 293°
2026-05-06 14:13 36.08350 106.19886 10030 ft 140 kts 291°
2026-05-06 14:13 36.08607 106.18729 10033 ft 140 kts 291°
2026-05-06 14:13 36.08861 106.17571 10027 ft 139 kts 291°
2026-05-06 14:13 36.09116 106.16416 10029 ft 139 kts 291°
2026-05-06 14:14 36.09370 106.15261 10030 ft 139 kts 291°
2026-05-06 14:14 36.09624 106.14106 10029 ft 139 kts 291°
2026-05-06 14:14 36.09879 106.12953 10032 ft 139 kts 291°
2026-05-06 14:14 36.10135 106.11798 10031 ft 139 kts 291°
2026-05-06 14:15 36.10392 106.10642 10038 ft 140 kts 291°
2026-05-06 14:15 36.10652 106.09477 10040 ft 141 kts 291°
2026-05-06 14:15 36.10909 106.08322 10035 ft 141 kts 291°
2026-05-06 14:15 36.11173 106.07130 10049 ft 143 kts 291°
2026-05-06 14:16 36.11437 106.05940 10052 ft 143 kts 291°
2026-05-06 14:16 36.11694 106.04764 10049 ft 144 kts 291°
2026-05-06 14:16 36.11957 106.03579 10035 ft 142 kts 292°
2026-05-06 14:16 36.12217 106.02404 10019 ft 141 kts 291°
2026-05-06 14:17 36.12473 106.01248 10017 ft 138 kts 291°
2026-05-06 14:17 36.12725 106.00109 10039 ft 137 kts 291°
2026-05-06 14:17 36.12979 105.98961 10049 ft 140 kts 293°
2026-05-06 14:17 36.13243 105.97774 10049 ft 142 kts 293°
2026-05-06 14:18 36.13505 105.96591 10034 ft 142 kts 293°
2026-05-06 14:18 36.13759 105.95431 10033 ft 141 kts 292°
2026-05-06 14:18 36.14017 105.94259 10041 ft 141 kts 292°
2026-05-06 14:18 36.14275 105.93086 10048 ft 142 kts 292°
2026-05-06 14:19 36.14536 105.91903 10063 ft 143 kts 292°
2026-05-06 14:19 36.14799 105.90708 10061 ft 144 kts 292°
2026-05-06 14:19 36.15065 105.89495 10036 ft 143 kts 292°
2026-05-06 14:19 36.15322 105.88327 10045 ft 142 kts 292°
2026-05-06 14:20 36.15582 105.87142 10058 ft 143 kts 292°
2026-05-06 14:20 36.15848 105.85952 10065 ft 145 kts 292°
2026-05-06 14:20 36.16115 105.84744 10052 ft 145 kts 292°
2026-05-06 14:20 36.16378 105.83539 10061 ft 145 kts 291°
2026-05-06 14:21 36.16640 105.82337 10076 ft 145 kts 292°
2026-05-06 14:21 36.16903 105.81126 10090 ft 147 kts 291°
2026-05-06 14:21 36.17173 105.79903 10073 ft 148 kts 292°
2026-05-06 14:21 36.17449 105.78655 10084 ft 148 kts 291°
2026-05-06 14:22 36.17709 105.77452 10079 ft 145 kts 292°
2026-05-06 14:22 36.17973 105.76243 10088 ft 146 kts 292°
2026-05-06 14:22 36.18242 105.75029 10078 ft 146 kts 292°
2026-05-06 14:22 36.18508 105.73806 10073 ft 145 kts 291°
2026-05-06 14:23 36.18770 105.72604 10073 ft 144 kts 291°
2026-05-06 14:23 36.18941 105.71812 10092 ft 145 kts 291°
2026-05-06 14:23 36.19206 105.70598 10091 ft 146 kts 291°
2026-05-06 14:23 36.19471 105.69381 10074 ft 146 kts 291°
2026-05-06 14:24 36.19734 105.68178 10085 ft 145 kts 291°
2026-05-06 14:24 36.19995 105.66975 10069 ft 144 kts 291°
2026-05-06 14:24 36.20343 105.65385 10081 ft 145 kts 292°
2026-05-06 14:24 36.20522 105.64569 10086 ft 146 kts 291°
2026-05-06 14:25 36.20786 105.63352 10070 ft 146 kts 290°
2026-05-06 14:25 36.21045 105.62156 10083 ft 143 kts 291°
2026-05-06 14:25 36.21302 105.60972 10090 ft 142 kts 291°
2026-05-06 14:25 36.21556 105.59797 10065 ft 140 kts 291°
2026-05-06 14:26 36.21803 105.58646 10087 ft 138 kts 290°
2026-05-06 14:26 36.22050 105.57492 10099 ft 140 kts 290°
2026-05-06 14:26 36.22306 105.56329 10086 ft 140 kts 291°
2026-05-06 14:26 36.22563 105.55160 10087 ft 141 kts 291°
2026-05-06 14:27 36.22819 105.53986 10082 ft 141 kts 291°
2026-05-06 14:27 36.23073 105.52818 10082 ft 140 kts 291°
2026-05-06 14:27 36.23322 105.51654 10087 ft 141 kts 291°
2026-05-06 14:27 36.23576 105.50478 10087 ft 142 kts 291°
2026-05-06 14:28 36.23831 105.49304 10076 ft 140 kts 290°
2026-05-06 14:28 36.24083 105.48135 10085 ft 140 kts 291°
2026-05-06 14:28 36.24335 105.46968 10083 ft 140 kts 291°
2026-05-06 14:28 36.24585 105.45803 10093 ft 140 kts 291°
2026-05-06 14:29 36.24838 105.44629 10097 ft 142 kts 291°
2026-05-06 14:29 36.25094 105.43446 10087 ft 142 kts 291°
2026-05-06 14:29 36.25350 105.42260 10088 ft 142 kts 291°
2026-05-06 14:29 36.25606 105.41073 10086 ft 142 kts 291°
2026-05-06 14:30 36.25858 105.39895 10076 ft 141 kts 291°
2026-05-06 14:30 36.26111 105.38723 10088 ft 141 kts 291°
2026-05-06 14:30 36.26334 105.37537 10100 ft 144 kts 283°
2026-05-06 14:30 36.26300 105.36283 10096 ft 147 kts 270°
2026-05-06 14:31 36.26251 105.35019 10093 ft 147 kts 274°
2026-05-06 14:31 36.26242 105.33755 10093 ft 146 kts 275°
2026-05-06 14:31 36.26242 105.32498 10086 ft 146 kts 275°
2026-05-06 14:31 36.26241 105.31246 10085 ft 145 kts 275°
2026-05-06 14:32 36.26234 105.29997 10091 ft 145 kts 275°
2026-05-06 14:32 36.26224 105.28739 10084 ft 146 kts 274°
2026-05-06 14:32 36.26210 105.27491 10081 ft 144 kts 274°
2026-05-06 14:32 36.26196 105.26258 10085 ft 143 kts 274°
2026-05-06 14:33 36.26182 105.25033 10078 ft 141 kts 274°
2026-05-06 14:33 36.26168 105.23819 10089 ft 141 kts 274°
2026-05-06 14:33 36.26153 105.22603 10093 ft 141 kts 274°
2026-05-06 14:33 36.26137 105.21386 10086 ft 141 kts 274°
2026-05-06 14:34 36.26122 105.20172 10098 ft 141 kts 273°
2026-05-06 14:34 36.26107 105.18952 10106 ft 142 kts 274°
2026-05-06 14:34 36.26091 105.17723 10093 ft 143 kts 274°
2026-05-06 14:34 36.26073 105.16501 10102 ft 145 kts 274°
2026-05-06 14:35 36.26059 105.15235 10088 ft 145 kts 274°
2026-05-06 14:35 36.26043 105.13988 10097 ft 145 kts 274°
2026-05-06 14:35 36.26024 105.12737 10082 ft 145 kts 274°
2026-05-06 14:35 36.26006 105.11494 10084 ft 144 kts 274°
2026-05-06 14:36 36.25988 105.10274 10083 ft 143 kts 274°
2026-05-06 14:36 36.25970 105.09025 10092 ft 143 kts 274°
2026-05-06 14:36 36.25953 105.07805 10092 ft 144 kts 274°
2026-05-06 14:36 36.25936 105.06561 10097 ft 144 kts 274°
2026-05-06 14:37 36.25918 105.05325 10074 ft 142 kts 273°
2026-05-06 14:37 36.25899 105.04115 10091 ft 140 kts 274°
2026-05-06 14:37 36.25881 105.02897 10098 ft 142 kts 273°
2026-05-06 14:37 36.25863 105.01674 10103 ft 142 kts 273°
2026-05-06 14:38 36.25845 105.00446 10093 ft 143 kts 274°
2026-05-06 14:38 36.25828 104.99221 10088 ft 142 kts 273°
2026-05-06 14:38 36.25811 104.98003 10093 ft 141 kts 274°
2026-05-06 14:38 36.25793 104.96784 10089 ft 141 kts 274°
2026-05-06 14:39 36.25774 104.95570 10093 ft 141 kts 273°
2026-05-06 14:39 36.25756 104.94360 10103 ft 141 kts 274°
2026-05-06 14:39 36.25738 104.93140 10108 ft 142 kts 273°
2026-05-06 14:39 36.25719 104.91910 10106 ft 143 kts 274°
2026-05-06 14:40 36.25700 104.90681 10098 ft 142 kts 274°
2026-05-06 14:40 36.25681 104.89456 10098 ft 142 kts 274°
2026-05-06 14:40 36.25662 104.88241 10109 ft 141 kts 275°
2026-05-06 14:40 36.25645 104.87017 10107 ft 142 kts 274°
2026-05-06 14:41 36.25624 104.85786 10093 ft 144 kts 274°
2026-05-06 14:41 36.25606 104.84557 10001 ft 139 kts 274°
2026-05-06 14:41 36.25590 104.83391 9897 ft 133 kts 275°
2026-05-06 14:41 36.25577 104.82256 9816 ft 131 kts 275°
2026-05-06 14:42 36.25565 104.81081 9703 ft 142 kts 275°
2026-05-06 14:42 36.25545 104.79830 9598 ft 148 kts 274°
2026-05-06 14:42 36.25521 104.78554 9487 ft 144 kts 274°
2026-05-06 14:42 36.25497 104.77367 9387 ft 134 kts 275°
2026-05-06 14:43 36.25478 104.76229 9307 ft 131 kts 275°
2026-05-06 14:43 36.25461 104.75105 9200 ft 130 kts 275°
2026-05-06 14:43 36.25443 104.74000 9154 ft 125 kts 274°
2026-05-06 14:43 36.25423 104.72903 9197 ft 131 kts 273°
2026-05-06 14:44 36.25399 104.71744 9198 ft 137 kts 274°
2026-05-06 14:44 36.25376 104.70552 9200 ft 139 kts 274°
2026-05-06 14:44 36.25353 104.69350 9195 ft 140 kts 273°
2026-05-06 14:45 36.25311 104.66968 9180 ft 136 kts 274°
2026-05-06 14:45 36.25291 104.65784 9133 ft 137 kts 272°
2026-05-06 14:45 36.25266 104.64609 9187 ft 138 kts 273°
2026-05-06 14:45 36.25245 104.63412 9210 ft 140 kts 274°
2026-05-06 14:46 36.25227 104.62182 9160 ft 145 kts 273°
2026-05-06 14:46 36.25206 104.60949 9202 ft 142 kts 272°
2026-05-06 14:46 36.25178 104.59731 9216 ft 142 kts 273°
2026-05-06 14:46 36.25154 104.58511 9239 ft 143 kts 274°
2026-05-06 14:47 36.25133 104.57269 9229 ft 145 kts 274°
2026-05-06 14:47 36.25112 104.56020 9221 ft 145 kts 274°
2026-05-06 14:47 36.25093 104.54766 9214 ft 146 kts 273°
2026-05-06 14:47 36.25072 104.53519 9205 ft 144 kts 273°
2026-05-06 14:48 36.25046 104.52275 9232 ft 145 kts 273°
2026-05-06 14:48 36.25021 104.51027 9210 ft 144 kts 273°
2026-05-06 14:48 36.24997 104.49800 9251 ft 143 kts 273°
2026-05-06 14:48 36.24972 104.48573 9251 ft 143 kts 273°
2026-05-06 14:49 36.24944 104.47336 9272 ft 146 kts 271°
2026-05-06 14:49 36.24913 104.46074 9249 ft 147 kts 274°
2026-05-06 14:49 36.24898 104.44819 9251 ft 145 kts 274°
2026-05-06 14:49 36.24883 104.43572 9248 ft 145 kts 274°
2026-05-06 14:50 36.24861 104.42337 9232 ft 143 kts 275°
2026-05-06 14:50 36.24833 104.41105 9278 ft 144 kts 273°
2026-05-06 14:50 36.24805 104.39848 9276 ft 147 kts 273°
2026-05-06 14:50 36.24776 104.38568 9273 ft 149 kts 272°
2026-05-06 14:51 36.24747 104.37302 9254 ft 146 kts 273°
2026-05-06 14:51 36.24729 104.36046 9253 ft 146 kts 273°
2026-05-06 14:51 36.24707 104.34791 9264 ft 146 kts 274°
2026-05-06 14:51 36.24683 104.33536 9263 ft 145 kts 274°
2026-05-06 14:52 36.24660 104.32285 9293 ft 146 kts 274°
2026-05-06 14:52 36.24632 104.31025 9288 ft 147 kts 273°
2026-05-06 14:52 36.24603 104.29767 9282 ft 146 kts 273°
2026-05-06 14:52 36.24577 104.28510 9262 ft 145 kts 273°
2026-05-06 14:53 36.24554 104.27258 9278 ft 146 kts 272°
2026-05-06 14:53 36.24529 104.26005 9293 ft 146 kts 274°
2026-05-06 14:53 36.24503 104.24751 9278 ft 144 kts 273°
2026-05-06 14:53 36.24475 104.23503 9260 ft 145 kts 274°
2026-05-06 14:54 36.24450 104.22259 9255 ft 145 kts 274°
2026-05-06 14:54 36.24422 104.21013 9251 ft 145 kts 273°
2026-05-06 14:54 36.24398 104.19765 9253 ft 145 kts 274°
2026-05-06 14:54 36.24367 104.18509 9266 ft 147 kts 273°
2026-05-06 14:55 36.24340 104.17243 9254 ft 146 kts 273°
2026-05-06 14:55 36.24313 104.15989 9272 ft 146 kts 273°
2026-05-06 14:55 36.24291 104.14723 9246 ft 146 kts 272°
2026-05-06 14:55 36.24269 104.13475 9260 ft 145 kts 272°
2026-05-06 14:56 36.24241 104.12212 9247 ft 147 kts 272°
2026-05-06 14:56 36.24213 104.10947 9245 ft 147 kts 272°
2026-05-06 14:56 36.24185 104.09687 9243 ft 146 kts 271°
2026-05-06 14:56 36.24156 104.08432 9244 ft 146 kts 272°
2026-05-06 14:57 36.24126 104.07176 9232 ft 145 kts 272°
2026-05-06 14:57 36.24105 104.05938 9244 ft 144 kts 273°
2026-05-06 14:57 36.24079 104.04695 9252 ft 145 kts 272°
2026-05-06 14:57 36.24045 104.03445 9251 ft 146 kts 273°
2026-05-06 14:58 36.24016 104.02184 9267 ft 147 kts 272°
2026-05-06 14:58 36.23986 104.00928 9243 ft 145 kts 273°
2026-05-06 14:58 36.23955 103.99677 9253 ft 146 kts 273°
2026-05-06 14:58 36.23927 103.98423 9257 ft 146 kts 272°
2026-05-06 14:59 36.23900 103.97171 9259 ft 145 kts 272°
2026-05-06 14:59 36.23872 103.95920 9252 ft 145 kts 272°
2026-05-06 14:59 36.23843 103.94666 9259 ft 146 kts 272°
2026-05-06 14:59 36.23813 103.93409 9260 ft 147 kts 272°
2026-05-06 15:00 36.23784 103.92145 9255 ft 147 kts 272°
2026-05-06 15:00 36.23755 103.90886 9250 ft 146 kts 272°
2026-05-06 15:00 36.23724 103.89635 9251 ft 145 kts 271°
2026-05-06 15:00 36.23694 103.88382 9256 ft 145 kts 272°
2026-05-06 15:01 36.23662 103.87132 9257 ft 145 kts 271°
2026-05-06 15:01 36.23632 103.85877 9269 ft 146 kts 271°
2026-05-06 15:01 36.23603 103.84612 9269 ft 148 kts 272°
2026-05-06 15:01 36.23568 103.83328 9251 ft 149 kts 271°
2026-05-06 15:02 36.23537 103.82041 9260 ft 150 kts 271°
2026-05-06 15:02 36.23507 103.80764 9250 ft 148 kts 271°
2026-05-06 15:02 36.23478 103.79490 9240 ft 147 kts 272°
2026-05-06 15:02 36.23426 103.78238 9254 ft 146 kts 270°
2026-05-06 15:03 36.23359 103.76981 9278 ft 147 kts 270°
2026-05-06 15:03 36.23299 103.75713 9261 ft 148 kts 270°
2026-05-06 15:03 36.23237 103.74449 9279 ft 147 kts 271°
2026-05-06 15:03 36.23175 103.73181 9285 ft 148 kts 269°
2026-05-06 15:04 36.23114 103.71915 9267 ft 147 kts 270°
2026-05-06 15:04 36.23053 103.70650 9256 ft 147 kts 270°
2026-05-06 15:04 36.22992 103.69391 9257 ft 146 kts 270°
2026-05-06 15:04 36.22968 103.68141 9262 ft 144 kts 280°
2026-05-06 15:05 36.23348 103.67033 9265 ft 139 kts 314°
2026-05-06 15:05 36.23823 103.66532 9263 ft 136 kts 334°
2026-05-06 15:05 36.24717 103.66235 9270 ft 132 kts
2026-05-06 15:05 36.25640 103.66200 9275 ft 133 kts
2026-05-06 15:06 36.26562 103.66124 9274 ft 133 kts 360°
2026-05-06 15:06 36.27488 103.66062 9275 ft 133 kts
2026-05-06 15:06 36.28419 103.66008 9278 ft 135 kts
2026-05-06 15:06 36.29354 103.65941 9272 ft 134 kts 360°
2026-05-06 15:07 36.30286 103.65860 9280 ft 134 kts
2026-05-06 15:07 36.31215 103.65766 9277 ft 134 kts 360°
2026-05-06 15:07 36.32140 103.65660 9279 ft 133 kts 359°
2026-05-06 15:07 36.33067 103.65540 9286 ft 134 kts 357°
2026-05-06 15:08 36.33998 103.65407 9278 ft 135 kts 357°
2026-05-06 15:08 36.34921 103.65259 9284 ft 133 kts 356°
2026-05-06 15:08 36.35836 103.65181 9291 ft 130 kts 10°
2026-05-06 15:08 36.36728 103.65382 9293 ft 131 kts 12°
2026-05-06 15:09 36.37645 103.65462 9288 ft 133 kts
2026-05-06 15:09 36.38574 103.65425 9285 ft 134 kts
2026-05-06 15:09 36.39500 103.65349 9292 ft 133 kts 359°
2026-05-06 15:09 36.40454 103.65253 9096 ft 144 kts 357°
2026-05-06 15:10 36.41442 103.65084 8765 ft 139 kts 355°
2026-05-06 15:10 36.42397 103.64916 8243 ft 144 kts 358°
2026-05-06 15:10 36.43390 103.64811 7866 ft 138 kts
2026-05-06 15:10 36.44338 103.64782 7469 ft 137 kts
2026-05-06 15:11 36.45238 103.64911 7073 ft 123 kts
2026-05-06 15:11 36.46071 103.64965 6801 ft 110 kts 357°
2026-05-06 15:11 36.46784 103.64869 6736 ft 101 kts 356°
2026-05-06 15:11 36.47455 103.64770 6749 ft 96 kts 350°
2026-05-06 15:12 36.48119 103.64713 6728 ft 96 kts
2026-05-06 15:12 36.48755 103.64721 6636 ft 80 kts
2026-05-06 15:12 36.49290 103.64703 6491 ft 75 kts 359°
2026-05-06 15:12 36.49804 103.64674 6438 ft 71 kts 359°
2026-05-06 15:13 36.50306 103.64651 6373 ft 75 kts 359°
2026-05-06 15:13 36.50822 103.64621 6388 ft 74 kts 359°
2026-05-06 15:13 36.51297 103.64499 6520 ft 68 kts 319°
2026-05-06 15:13 36.51405 103.63921 6570 ft 77 kts 271°
2026-05-06 15:14 36.51369 103.63233 6608 ft 81 kts 263°
2026-05-06 15:14 36.51184 103.62574 6643 ft 83 kts 243°
2026-05-06 15:14 36.50784 103.62024 6597 ft 91 kts 211°
2026-05-06 15:14 36.50189 103.61831 6596 ft 90 kts 182°
2026-05-06 15:15 36.49576 103.61825 6615 ft 83 kts 178°
2026-05-06 15:15 36.48994 103.61834 6577 ft 83 kts 171°
2026-05-06 15:15 36.48974 103.62214 6505 ft 77 kts
2026-05-06 15:15 36.49541 103.62205 6404 ft 84 kts 358°
2026-05-06 15:16 36.50107 103.62168 6341 ft 73 kts 359°
2026-05-06 15:16 36.50513 103.62156 6335 ft 45 kts 352°
2026-05-06 15:16 36.50754 103.62129 6339 ft 27 kts 356°
2026-05-06 15:16 36.50898 103.62106 6340 ft 16 kts 350°
2026-05-06 15:17 36.50946 103.62035 6341 ft 11 kts 272°
2026-05-06 15:17 36.50946 103.61936 6343 ft 12 kts 269°
2026-05-06 15:17 36.50944 103.61824 6343 ft 13 kts 274°
2026-05-06 15:17 36.50961 103.61758 6344 ft 6 kts 303°
2026-05-06 15:18 36.50990 103.61716 6344 ft 7 kts 355°
2026-05-06 15:18 36.51014 103.61741 6345 ft 5 kts 94°
2026-05-06 15:18 36.51015 103.61756 6345 ft 0 kts 88°